Sidney, NE

7:42 AM MST on December 08, 2016 (GMT -0700)
Sidney Municipal

Weather History for KSNY - September, 2013

Change the Weather History Date:

Monday, September 16, 2013

  Actual Average Record
Temperature  
Mean Temperature 58 °F 63 °F  
Max Temperature 63 °F 79 °F 93 °F (2000)
Min Temperature 53 °F 48 °F 29 °F (1965)
Degree Days  
Heating Degree Days 7 4  
Month to date heating degree days 17 35  
Since 1 July heating degree days 26 46  
Cooling Degree Days 0 2  
Month to date cooling degree days 130 65  
Year to date cooling degree days 893 807  
Growing Degree Days 8 (Base 50)    
Moisture  
Dew Point 53 °F    
Average Humidity 89    
Maximum Humidity 100    
Minimum Humidity 78    
Precipitation  
Precipitation 0.01 in 0.03 in 0.63 in (1971)
Month to date precipitation 3.17 0.77  
Year to date precipitation 11.34 15.93  
Sea Level Pressure  
Sea Level Pressure 30.19 in    
Wind  
Wind Speed 15 mph (SSE)    
Max Wind Speed 23 mph    
Max Gust Speed 28 mph    
Visibility 7 miles    
Events Rain    
T = Trace of Precipitation, MM = Missing Value Source: NWS Daily Summary

Daily Weather History Graph

Daily Weather History Graph

Search for Another Location

Airport or City:

Trip Planner

Search our weather history database for the weather conditions in past years. The results will help you decide how hot, cold, wet, or windy it might be!

Date:

Astronomy

Sep. 16, 2013 Rise Set
Actual Time 6:33 AM MDT 6:58 PM MDT
Civil Twilight 6:06 AM MDT 7:26 PM MDT
Nautical Twilight 5:33 AM MDT 7:58 PM MDT
Astronomical Twilight 5:00 AM MDT 8:32 PM MDT
Moon 5:10 PM MDT (9/16) 3:21 AM MDT (9/16)
Length of Visible Light 13h 20m
Length of Day
12h 25m
Waxing Gibbous, 90% of the Moon is Illuminated
Sep 16
Waxing Gibbous
Sep 19
Full
Sep 26
Last Quarter
Oct 4
New
Oct 11
First Quarter

Hourly Weather History & Observations

Time (MDT) Temp. Dew Point Humidity Pressure Visibility Wind Dir Wind Speed Gust Speed Precip Events Conditions
12:00 AM 55.4 °F 51.8 °F 88% 30.31 in 10.0 mi ESE 11.5 mph - N/A   Overcast
12:35 AM 55.4 °F 51.8 °F 88% 30.31 in 10.0 mi SE 13.8 mph - N/A   Overcast
12:53 AM 55.0 °F 52.0 °F 89% 30.24 in 10.0 mi ESE 10.4 mph - N/A   Overcast
1:01 AM 55.4 °F 51.8 °F 88% 30.31 in 10.0 mi ESE 11.5 mph - N/A   Overcast
1:53 AM 54.0 °F 51.1 °F 90% 30.22 in 8.0 mi ESE 11.5 mph - N/A   Overcast
2:38 AM 53.6 °F 51.8 °F 94% 30.29 in 2.5 mi ESE 11.5 mph - N/A   Overcast
2:53 AM 54.0 °F 52.0 °F 93% 30.21 in 2.0 mi SE 10.4 mph - N/A   Overcast
3:04 AM 53.6 °F 51.8 °F 94% 30.29 in 1.8 mi SE 10.4 mph - 0.00 in Rain Light Rain
3:17 AM 53.6 °F 51.8 °F 94% 30.29 in 2.5 mi SE 9.2 mph - 0.00 in Rain Light Rain
3:53 AM 54.0 °F 52.0 °F 93% 30.20 in 2.0 mi SE 9.2 mph - 0.01 in   Overcast
4:24 AM 53.6 °F 53.6 °F 100% 30.28 in 4.0 mi SE 11.5 mph - N/A   Overcast
4:53 AM 54.0 °F 53.1 °F 97% 30.19 in 6.0 mi SE 9.2 mph - N/A   Overcast
5:53 AM 53.1 °F 52.0 °F 96% 30.21 in 3.0 mi SE 13.8 mph - N/A   Overcast
6:04 AM 53.6 °F 51.8 °F 94% 30.28 in 2.5 mi SE 16.1 mph - N/A   Overcast
6:42 AM 53.6 °F 51.8 °F 94% 30.28 in 2.5 mi SE 13.8 mph - N/A   Overcast
7:07 AM 53.6 °F 51.8 °F 94% 30.28 in 1.8 mi SSE 16.1 mph - 0.01 in   Mist
7:20 AM 53.6 °F 51.8 °F 94% 30.28 in 2.5 mi SSE 16.1 mph - 0.01 in   Mist
7:27 AM 53.6 °F 51.8 °F 94% 30.28 in 3.0 mi SSE 15.0 mph - 0.01 in   Overcast
7:53 AM 53.1 °F 52.0 °F 96% 30.22 in 7.0 mi SSE 16.1 mph - 0.01 in   Overcast
8:33 AM 53.6 °F 51.8 °F 94% 30.28 in 2.0 mi SSE 16.1 mph 23.0 mph N/A   Overcast
8:53 AM 54.0 °F 53.1 °F 97% 30.21 in 4.0 mi South 18.4 mph - N/A   Overcast
9:18 AM 53.6 °F 53.6 °F 100% 30.28 in 10.0 mi South 16.1 mph - N/A   Overcast
9:53 AM 55.9 °F 53.1 °F 90% 30.21 in 10.0 mi South 16.1 mph - N/A   Overcast
10:53 AM 55.9 °F 53.1 °F 90% 30.20 in 10.0 mi SSE 17.3 mph - N/A   Overcast
11:53 AM 57.0 °F 53.1 °F 87% 30.18 in 10.0 mi South 17.3 mph - N/A   Overcast
12:53 PM 57.0 °F 53.1 °F 87% 30.17 in 10.0 mi South 13.8 mph - N/A   Overcast
1:33 PM 59.0 °F 53.6 °F 82% 30.21 in 10.0 mi South 13.8 mph - N/A   Overcast
1:53 PM 59.0 °F 53.1 °F 81% 30.13 in 10.0 mi SSE 15.0 mph - N/A   Overcast
2:29 PM 59.0 °F 53.6 °F 82% 30.19 in 10.0 mi SSE 15.0 mph - N/A   Overcast
2:46 PM 59.0 °F 53.6 °F 82% 30.18 in 10.0 mi SSE 15.0 mph - N/A   Overcast
2:53 PM 59.0 °F 54.0 °F 83% 30.11 in 10.0 mi SSE 13.8 mph - N/A   Overcast
3:53 PM 62.1 °F 55.0 °F 78% 30.07 in 10.0 mi SSE 19.6 mph 24.2 mph N/A   Overcast
4:53 PM 62.1 °F 55.0 °F 78% 30.06 in 10.0 mi SSE 17.3 mph 24.2 mph N/A   Overcast
5:53 PM 60.1 °F 54.0 °F 80% 30.05 in 10.0 mi SSE 17.3 mph 24.2 mph N/A   Overcast
6:53 PM 57.9 °F 54.0 °F 87% 30.11 in 10.0 mi SSE 15.0 mph - N/A   Overcast
7:28 PM 57.2 °F 53.6 °F 88% 30.10 in 10.0 mi SSE 16.1 mph - N/A   Overcast
7:53 PM 57.9 °F 55.0 °F 90% 30.04 in 10.0 mi SSE 15.0 mph 25.3 mph N/A   Overcast
8:53 PM 57.0 °F 54.0 °F 89% 30.04 in 10.0 mi SSE 17.3 mph 24.2 mph N/A   Overcast
9:38 PM 57.2 °F 55.4 °F 94% 30.12 in 10.0 mi South 17.3 mph 24.2 mph N/A   Overcast
9:53 PM 57.0 °F 55.0 °F 93% 30.04 in 9.0 mi South 20.7 mph - N/A   Overcast
10:53 PM 57.0 °F 55.0 °F 93% 30.02 in 10.0 mi South 19.6 mph 26.5 mph N/A   Overcast
11:53 PM 57.9 °F 55.9 °F 93% 30.01 in 9.0 mi South 19.6 mph 26.5 mph N/A   Overcast